www.pogodaiklimat.ru

Погода и климат >> Архив погоды >> Антарктида >> Дюмон-д`Юрвиль


ПОГОДА на Дюмон-д`Юрвиле

  • Прогноз погоды на Дюмон-д`Юрвиле
  • Монитор погоды на Дюмон-д`Юрвиле

АРХИВ ПОГОДЫ на Дюмон-д`Юрвиле

Время (UTC), дата Ветер
(напр.,м/с)
 
Видим.   Явления Облачность Т
(С)
Тd
(С)
f
(%)
Тe
(С)
Тes
(С)
Комфортность P
(гПа)
Po
(гПа)
Тmin
(С)
Tmax
(С)
R
(мм)
R24
(мм)
S
(см)
12 12.08 СЗ 4 н/о н/о -16.9 -20.9 71 -25 -25 992.5 986.8 -17.7 -13.4
15 12.08 З 3 н/о н/о -14.8 -22.9 50 -21 -21 991.6 986.0
18 12.08 ЮЗ 2 н/о н/о -14.6 -22.3 52 -19 -19 990.4 984.8
21 12.08 СВ 2 30 км 8/0
[]
-14.7 -23.8 46 -20 -20 989.2 983.6
00 13.08 СВ 3 30 км 8/0
[Ac As Ci]
-15.6 -22.4 56 -22 -22 988.1 982.5 -16.9 -13.6
03 13.08 ЮЗ 2 20 км 10/0
[As trans]
-14.4 -23.0 48 -18 -18 985.6 980.0
06 13.08 В 2 20 км 10/0
[Ac As]
-14.4 -23.0 48 -19 -19 982.4 976.8
09 13.08 В 5 20 км 10/0
[As trans]
-16.1 -22.3 59 -25 -25 980.8 975.2
12 13.08 В 5 н/о н/о -16.6 -21.8 64 -26 -26 978.2 972.6 -16.8 -13.8
15 13.08 В 5
{16}
н/о н/о -17.9 -22.2 69 -28 -28 975.3 969.7
18 13.08 В 12-18
{18}
н/о н/о -14.0 -16.3 83 -26 -26 973.5 968.0
21 13.08 ЮВ 16-26
{26}
1000 м ?/? -14.0 -15.7 87 -28 -28 973.4 967.9
00 14.08 ЮВ 12-20
{27}
2000 м слаб. снег 10/10 800 м
[Frnb]
-13.1 -14.8 87 -25 -25 974.6 969.1 -17.9 -13.1
03 14.08 ЮВ 8
{20}
10 км {снег, метель} 10/10 1000 м
[Frnb]
-11.7 -14.3 81 -22 -22 976.0 970.5
06 14.08 ЮВ 10
{22}
20 км {снег, метель} 10/10 1200 м
[Sc]
-12.1 -17.7 63 -23 -23 978.2 972.7
09 14.08 СВ 4
{24}
10 км 10/10 1200 м
[Sc]
-12.5 -19.7 55 -20 -20 981.3 975.8
12 14.08 СЗ 6
{24}
н/о н/о -13.9 -16.2 83 -23 -23 984.5 978.9 -13.9 -10.9
15 14.08 В 3 н/о н/о -14.2 -18.3 71 -20 -20 987.6 982.0
18 14.08 В 5 н/о н/о -14.1 -21.0 56 -22 -22 990.4 984.8
21 14.08 В 2 3000 м 10/10 800 м
[]
-14.4 -18.0 74 -19 -19 992.5 986.9
00 15.08 В 5
{13}
6000 м слаб. снег 10/10 600 м
[Frnb]
-14.0 -17.8 73 -22 -22 993.6 988.0 -14.6 -13.7
03 15.08 В 6 10 км {снег} 10/10 800 м
[Frnb]
-13.4 -19.0 63 -23 -23 993.7 988.1
06 15.08 В 5 10 км {снег} 10/10 800 м
[Sc]
-13.5 -19.0 63 -22 -22 993.5 987.9
09 15.08 ЮВ 2 10 км 10/10 1500 м
[Sc]
-13.8 -19.5 62 -19 -19 993.3 987.7
12 15.08 В 3 н/о н/о -14.7 -19.7 66 -21 -21 993.6 988.0 -14.7 -13.2
15 15.08 В 3 н/о н/о -16.0 -20.6 68 -23 -23 993.7 988.0
18 15.08 В 6 н/о н/о -19.6 -23.4 72 -31 -31 опасность
обморожения
994.1 988.4
21 15.08 В 4 50 км ясно -20.8 -24.5 72 -29 -29 994.9 989.1
00 16.08 В 3 20 км 1/0
[Ac trans]
-21.7 -23.9 82 -30 -30 995.6 989.8 -22.5 -14.7
03 16.08 В 4 20 км 8/1 90 м
[Frnb Ci]
-21.6 -24.0 81 -31 -31 опасность
обморожения
996.2 990.4
06 16.08 В 4 20 км 4/1 800 м
[Sc Ci fib]
-22.5 -24.6 83 -31 -31 опасность
обморожения
996.2 990.4
09 16.08 В 4 20 км 6/0
[Ci]
-22.9 -25.3 81 -32 -32 опасность
обморожения
995.8 990.0
12 16.08 В 4 н/о н/о -24.3 -26.8 80 -34 -34 опасность
обморожения
994.8 989.0 -24.3 -21.2
15 16.08 В 7 н/о н/о -23.1 -27.5 67 -35 -35 опасность
обморожения
992.1 986.3
18 16.08 В 6 н/о н/о -23.8 -28.7 64 -36 -36 опасность
обморожения
989.7 983.9
21 16.08 В 8-13
{16}
10 км 10/0
[]
-21.0 -24.9 71 -34 -34 опасность
обморожения
985.1 979.4
00 17.08 В 19-29
{32}
500 м сильная метель 10/0
[As trans]
-14.0 -16.9 79 -29 -29 980.6 975.1 -24.5 -13.7
03 17.08 ЮВ 25-37
{37}
н/о н/о -14.6 -19.2 68 -31 -31 опасность
обморожения
978.0 972.5
06 17.08 ЮВ 21-33
{38}
500 м сильная метель 10/0
[As trans]
-14.5 -18.9 69 -30 -30 979.4 973.9
09 17.08 ЮВ 21-31
{33}
10 км метель 6/0
[Ci fib]
-14.4 -22.1 52 -30 -30 981.1 975.6
12 17.08 ЮВ 15-29
{33}
н/о н/о -13.7 -24.7 39 -27 -27 983.2 977.7 -15.4 -12.5
15 17.08 СЗ 3
{24}
н/о н/о -18.1 -22.1 71 -25 -25 985.9 980.2
18 17.08 З 2
{24}
н/о н/о -19.1 -22.1 77 -24 -24 986.7 981.0
21 17.08 З 2 20 км ясно -19.2 -22.5 75 -24 -24 987.8 982.1
00 18.08 Ю 1 20 км 1/0
[Ci fib]
-17.6 -25.3 51 -20 -20 988.1 982.4 -19.7 -13.4
03 18.08 З 2 30 км 1/0
[Ci fib]
-15.3 -24.6 45 -19 -18 987.6 982.0
06 18.08 Ю 4 30 км 3/0
[Ac trans Ci fib]
-14.9 -26.4 37 -23 -23 986.9 981.3
09 18.08 Ю 6
{16}
20 км ясно -16.6 -26.0 44 -27 -27 986.7 981.1
12 18.08 Ю 8
{16}
н/о н/о -17.8 -26.2 48 -30 -30 987.1 981.4 -17.8 -14.3
15 18.08 Ю 6
{14}
н/о н/о -18.9 -27.4 47 -29 -29 986.8 981.1
18 18.08 ЮВ 6
{14}
н/о н/о -18.5 -27.3 46 -29 -29 986.3 980.6
21 18.08 Ю 11
{19}
20 км ясно -18.0 -26.6 47 -31 -31 опасность
обморожения
986.3 980.6
00 19.08 Ю 6
{19}
30 км ясно -17.6 -26.7 45 -28 -28 986.5 980.9 -19.4 -16.6
03 19.08 В 4 30 км ясно -19.3 -27.3 49 -28 -27 988.3 982.6
06 19.08 В 3 20 км ясно -24.2 -28.0 71 -33 -33 опасность
обморожения
989.4 983.6
09 19.08 СВ 5 н/о н/о -20.9 -26.8 59 -31 -31 опасность
обморожения
989.8 984.1

 

Местоположение метеостанции Дюмон-д`Юрвиль (Антарктида): широта -66.66 долгота 140.01 высота над уровнем моря 43 м.

В архиве по умолчанию представлена погода на Дюмон-д`Юрвиле за последнюю неделю. Архивные данные за месяц целиком и за предыдущие месяцы, начиная с января 2011 года, Вы можете получить, выбрав интересующий диапазон дат из раскрывающегося списка и нажав кнопку "Ввод!".


*Определитесь, кто Вы:
робот инопланетянин человек

Внимание! Время в таблицах - всемирное. Для получения местного времени необходимо прибавить поправку, которая равна 0 ч.

Смотрите также архив погоды в соседних городах и на ближайших метеорологических станциях:

Погода на D-47 (Антарктида) (98 км)
Погода в Sitry Point (Антарктида) (651 км)
Погода на Mid Point (Антарктида) (691 км)
Погода на Ленинградской (Антарктида) (860 км)
Погода на Dome C II (Антарктида) (1110 км)
Погода на Острове Маккуори (Тасмания, Австралия) (1688 км)

Пояснения к столбцам:

Ветер - указаны скорость ветра в м/с - средняя за 10 мин, порывы в срок и между сроками (в фигурных скобках) и направление, откуда дует ветер: С - северный, СВ - северо-восточный, В - восточный, ЮВ - юго-восточный, Ю - южный, ЮЗ - юго-западный, З - западный, СЗ - северо-западный.
Видимость - горизонтальная дальность видимости в метрах или километрах. При видимости от 1 до 10 км при отсутствии осадков обычно наблюдается дымка, при ухудшении видимости до 1 км и менее - туман. В сухую погоду видимость может ухудшаться дымом, пылью или мглою.
Явления - указаны атмосферные явления, наблюдавшиеся в срок или в последний час перед сроком; фигурными скобками обозначены явления, наблюдавшиеся между сроками (за 1-3 часа до срока); квадратными скобками обозначены град или гололедные отложения с указанием их диаметра в мм.
Облачность - указаны через наклонную черту общая и нижняя облачность в баллах и высота нижней границы облаков в метрах; квадратными скобками обозначены формы облаков: Ci - перистые, Cs - перисто-слоистые, Cc - перисто-кучевые, Ac - высококучевые, As - высокослоистые, Sc - слоисто-кучевые, Ns - слоисто-дождевые, Cu - кучевые, Cb - кучево-дождевые. Подробнее классификацию облаков см. в Атласе облаков (PDF).
T - Температура воздуха - температура, измеренная на высоте 2 м над землей.
Td - Температура точки росы - температура, при понижении до которой содержащийся в воздухе водяной пар достигнет насыщения.
f - Относительная влажность воздуха - влажноcть воздуха, измеренная на высоте 2 м над землей.
Te - Эффективная температура - температура, которую ощущает одетый по сезону человек в тени. Характеристика душности погоды. При расчете учитывается влияние влажности воздуха и скорости ветра на теплоощущения человека.
Tes - Эффективная температура на солнце - температура, которую ощущает человек, с поправкой на солнечный нагрев. Характеристика знойности погоды. Зависит от высоты солнца над горизонтом, облачности и скорости ветра. Ночью, в пасмурную погоду, а также при ветре 12 м/с и более поправка равна нулю.
P - Атмосферное давление - приведенное к уровню моря атмосферное давление.
Po - Атмосферное давление - измеренное на уровне метеостанции атмосферное давление.
Tmin - Минимальная температура - минимум температуры воздуха на высоте 2 м над землей.
Tmax - Максимальная температура - максимум температуры воздуха на высоте 2 м над землей.
R - Количество осадков - Количество выпавших осадков за период времени, мм. При наведении курсора мыши на число - период времени, за который выпало указанное количество осадков.
R24 - Количество осадков - Количество выпавших осадков за 24 часа, мм.
S - Снежный покров - Высота снежного покрова, см. При наведении курсора мыши на число - состояние снежного покрова и степень покрытия местности в баллах.